Weather in Dawadmi

Saudi Arabia     24°30′53″N   44°25′14″E
temp.,
°C
wind,
m/s
gust,
m/s
humid.,
%
clouds,
%
prec.,
mm/h
press.,
hPa
HPBL,
m
29 june, wed
wed2900:00+29ene4616100 0.0 100554
03:00+27e3319100 0.0 100514
06:00+27ese3415100 0.0 100635
09:00+34e431017 0.0 1006611
12:00+38nne2285 0.0 10042610
15:00+40nne4579 0.0 10013877
18:00+37ne6780 0.0 1002413
21:00+31ene56115 0.0 100448
30 june, thu
thu3000:00+29e34145 0.0 100419
03:00+26se22170 0.0 100311
06:00+28s22158 0.0 100411
09:00+35nne22105 0.0 1004744
12:00+39n33892 0.0 10022898
15:00+40nnw436100 0.0 10003970
18:00+39nnw4565 0.0 1000112
21:00+32ne33101 0.0 100211
1 july, fri
fri100:00+29s11110 0.0 100111
03:00+29w56125 0.0 100247
06:00+27wnw57136 0.0 100369
09:00+35nw4495 0.0 1003471
12:00+40n2363 0.0 10012731
15:00+42n43591 0.0 9993985
18:00+40n46614 0.0 999108
21:00+34n44994 0.0 100212
2 july, sat
sat200:00+31ene3311100 0.0 100112
03:00+30wnw561199 0.0 100248
06:00+28w451313 0.0 100361
09:00+34nnw1194 0.0 1003562
12:00+40ene1178 0.0 10012151
15:00+42nnw23625 0.0 9993983
18:00+40nnw4576 0.0 999123
21:00+34nnw331068 0.0 100111
3 july, sun
sun300:00+31wnw610120 0.0 1002109
03:00+29w55130 0.0 100141
06:00+27w57170 0.0 100291
09:00+34wnw43125 0.0 1002612
12:00+39wnw1290 0.0 10001795
15:00+41wnw3471 0.0 9983963
18:00+40nw4575 0.0 998103
21:00+33n33115 0.0 100112